Location: Morisset
(33.1080°S, 151.4871°E)
Time: 08:49:05
(UTC+00:00)

Cosmos 304 Rocket - Pass Details

Date: 29 October 2020
Orbit: 679 x 688 km, 74.0° (Epoch: 28 November)

Event Time Altitude Azimuth Distance (km) Brightness Sun altitude
Exits shadow 17:43:42 14° 341° (NNW) 1,868 5.6 -15.0°
Maximum altitude 17:47:51 82° 254° (WSW) 706 3.7 -14.2°
Drops below altitude 10° 17:52:44 10° 165° (SSE) 2,164 6.9 -13.3°
Sets 17:55:04 0° 164° (SSE) 3,087 7.8 -12.8°
